TimeEST,TemperatureF,Dew PointF,Humidity,Sea Level PressureIn,VisibilityMPH,Wind Direction,Wind SpeedMPH,Gust SpeedMPH,PrecipitationIn,Events,Conditions,WindDirDegrees,DateUTC
12:02 AM,30.0,30.0,100,29.95,0.2,North,8.1,-,N/A,Fog,Light Freezing Fog,10,2013-12-04 05:02:00
12:10 AM,30.9,30.9,100,29.95,0.5,NNE,8.1,-,N/A,Fog,Light Freezing Fog,20,2013-12-04 05:10:00
12:18 AM,30.9,30.9,100,29.95,0.8,NNE,8.1,-,N/A,,Mist,20,2013-12-04 05:18:00
12:54 AM,32.0,32.0,100,30.00,0.5,NE,3.5,-,N/A,Fog,Fog,50,2013-12-04 05:54:00
1:34 AM,30.9,30.9,100,29.96,0.2,NNE,6.9,-,N/A,Fog,Light Freezing Fog,20,2013-12-04 06:34:00
1:49 AM,30.2,30.2,100,29.97,0.2,North,6.9,-,N/A,Fog,Light Freezing Fog,10,2013-12-04 06:49:00
1:54 AM,30.9,30.9,100,30.01,0.2,North,8.1,-,N/A,Fog,Light Freezing Fog,360,2013-12-04 06:54:00
2:24 AM,32.0,32.0,100,29.97,0.5,NE,6.9,-,N/A,Fog,Fog,40,2013-12-04 07:24:00
2:33 AM,32.0,32.0,100,29.97,2.0,NE,3.5,-,N/A,,Mostly Cloudy,50,2013-12-04 07:33:00
2:50 AM,32.0,32.0,100,29.98,0.8,NNE,5.8,-,N/A,,Mostly Cloudy,20,2013-12-04 07:50:00
2:54 AM,30.9,30.9,100,30.01,0.5,North,6.9,-,N/A,Fog,Light Freezing Fog,10,2013-12-04 07:54:00
3:03 AM,30.9,30.9,100,29.97,0.2,North,9.2,-,N/A,Fog,Light Freezing Fog,10,2013-12-04 08:03:00
3:10 AM,30.9,30.9,100,29.97,0.5,NNE,8.1,-,N/A,Fog,Light Freezing Fog,20,2013-12-04 08:10:00
3:20 AM,30.9,30.9,100,29.97,1.8,North,8.1,-,N/A,,Mostly Cloudy,10,2013-12-04 08:20:00
3:27 AM,30.9,30.9,100,29.97,2.0,NNE,6.9,-,N/A,,Mostly Cloudy,20,2013-12-04 08:27:00
3:54 AM,32.0,32.0,100,30.01,2.5,NNW,3.5,-,N/A,,Scattered Clouds,340,2013-12-04 08:54:00
4:06 AM,30.9,30.9,100,29.96,0.8,North,8.1,-,N/A,,Partly Cloudy,10,2013-12-04 09:06:00
4:14 AM,30.0,30.0,100,29.96,0.5,NNE,5.8,-,N/A,Fog,Light Freezing Fog,20,2013-12-04 09:14:00
4:20 AM,30.9,30.9,100,29.96,2.0,NNE,3.5,-,N/A,,Partly Cloudy,20,2013-12-04 09:20:00
4:33 AM,30.9,30.9,100,29.96,1.8,ENE,3.5,-,N/A,,Partly Cloudy,60,2013-12-04 09:33:00
4:39 AM,30.9,30.9,100,29.96,1.8,North,4.6,-,N/A,,Partly Cloudy,10,2013-12-04 09:39:00
4:45 AM,28.9,28.9,100,29.95,0.2,North,6.9,-,N/A,Fog,Light Freezing Fog,10,2013-12-04 09:45:00
4:54 AM,28.9,28.9,100,29.99,0.2,NNE,8.1,-,N/A,Fog,Light Freezing Fog,30,2013-12-04 09:54:00
5:04 AM,30.0,30.0,100,29.96,1.0,Calm,Calm,-,N/A,,Mist,0,2013-12-04 10:04:00
5:13 AM,30.0,30.0,100,29.96,0.8,NNE,3.5,-,N/A,,Mist,20,2013-12-04 10:13:00
5:36 AM,28.9,28.9,100,29.96,0.2,North,8.1,-,N/A,Fog,Light Freezing Fog,10,2013-12-04 10:36:00
5:43 AM,30.0,28.9,96,29.96,1.0,North,8.1,-,N/A,,Mist,10,2013-12-04 10:43:00
5:54 AM,28.9,28.9,100,30.01,0.8,North,8.1,-,N/A,,Mist,10,2013-12-04 10:54:00
6:22 AM,28.9,28.9,100,29.96,2.0,North,8.1,-,N/A,,Mostly Cloudy,10,2013-12-04 11:22:00
6:29 AM,30.0,30.0,100,29.97,2.5,North,6.9,-,N/A,,Scattered Clouds,10,2013-12-04 11:29:00
6:40 AM,28.9,28.9,100,29.97,1.0,North,5.8,-,N/A,,Mist,10,2013-12-04 11:40:00
6:45 AM,28.0,28.0,100,29.97,0.5,North,8.1,-,N/A,Fog,Light Freezing Fog,360,2013-12-04 11:45:00
6:54 AM,28.0,28.0,100,30.02,0.2,North,8.1,-,N/A,Fog,Light Freezing Fog,10,2013-12-04 11:54:00
6:58 AM,28.0,28.0,100,29.98,0.5,North,8.1,-,N/A,Fog,Light Freezing Fog,360,2013-12-04 11:58:00
7:09 AM,28.0,28.0,100,29.98,1.2,NE,4.6,-,N/A,,Mostly Cloudy,50,2013-12-04 12:09:00
7:30 AM,28.0,28.0,100,29.99,0.8,North,8.1,-,N/A,,Mostly Cloudy,10,2013-12-04 12:30:00
7:37 AM,28.9,28.0,96,30.00,0.5,North,8.1,-,N/A,Fog,Light Freezing Fog,360,2013-12-04 12:37:00
7:52 AM,30.2,30.2,100,30.00,1.2,NE,3.5,-,N/A,,Mostly Cloudy,40,2013-12-04 12:52:00
7:54 AM,30.0,30.0,100,30.05,1.2,NE,4.6,-,N/A,,Mostly Cloudy,50,2013-12-04 12:54:00
8:03 AM,28.9,28.9,100,30.01,1.0,NE,3.5,-,N/A,,Mostly Cloudy,40,2013-12-04 13:03:00
8:12 AM,30.0,30.0,100,30.02,0.5,Calm,Calm,-,N/A,Fog,Light Freezing Fog,0,2013-12-04 13:12:00
8:40 AM,30.0,30.0,100,30.02,1.2,North,6.9,-,N/A,,Overcast,360,2013-12-04 13:40:00
8:54 AM,30.9,30.9,100,30.07,1.8,North,4.6,-,N/A,,Overcast,10,2013-12-04 13:54:00
9:29 AM,32.0,32.0,100,30.03,2.0,NNE,5.8,-,N/A,,Overcast,20,2013-12-04 14:29:00
9:37 AM,32.0,32.0,100,30.04,1.8,NNE,4.6,-,N/A,,Overcast,20,2013-12-04 14:37:00
9:54 AM,34.0,34.0,100,30.09,2.0,NNE,3.5,-,N/A,,Overcast,30,2013-12-04 14:54:00
10:35 AM,36.0,35.1,97,30.04,3.0,ENE,5.8,-,N/A,,Mostly Cloudy,70,2013-12-04 15:35:00
10:54 AM,37.0,35.1,93,30.07,4.0,NE,3.5,-,N/A,,Partly Cloudy,40,2013-12-04 15:54:00
11:54 AM,43.0,37.0,80,30.03,6.0,North,3.5,-,N/A,,Haze,350,2013-12-04 16:54:00
12:54 PM,46.0,37.0,71,30.02,6.0,North,3.5,-,N/A,,Haze,10,2013-12-04 17:54:00
1:54 PM,46.9,39.0,74,30.00,7.0,NE,4.6,-,N/A,,Scattered Clouds,50,2013-12-04 18:54:00
2:54 PM,48.0,39.9,74,29.99,8.0,NE,5.8,-,N/A,,Clear,40,2013-12-04 19:54:00
3:54 PM,46.9,39.9,77,29.99,9.0,NE,6.9,-,N/A,,Clear,50,2013-12-04 20:54:00
4:54 PM,45.0,39.0,80,30.02,8.0,East,4.6,-,N/A,,Clear,90,2013-12-04 21:54:00
5:54 PM,44.1,37.9,79,30.02,7.0,East,4.6,-,N/A,,Clear,90,2013-12-04 22:54:00
6:54 PM,42.1,37.9,85,30.02,7.0,NE,5.8,-,N/A,,Clear,50,2013-12-04 23:54:00
7:54 PM,39.9,37.9,93,30.02,6.0,NE,5.8,-,N/A,,Clear,40,2013-12-05 00:54:00
8:54 PM,39.0,37.0,93,30.03,5.0,North,5.8,-,N/A,,Clear,10,2013-12-05 01:54:00
9:54 PM,39.0,37.0,93,30.02,4.0,NNE,6.9,-,N/A,,Clear,30,2013-12-05 02:54:00
10:54 PM,39.0,37.0,93,30.02,4.0,NE,5.8,-,N/A,,Overcast,40,2013-12-05 03:54:00
11:21 PM,37.9,37.0,97,29.98,3.0,NNE,5.8,-,N/A,,Overcast,30,2013-12-05 04:21:00
11:36 PM,39.0,37.9,96,29.99,4.0,NNE,6.9,-,N/A,,Overcast,30,2013-12-05 04:36:00
11:54 PM,41.0,39.0,93,30.01,4.0,NE,4.6,-,N/A,,Overcast,50,2013-12-05 04:54:00